English version Home page |
Updated on June 14, 2021 |
|
軌道要素Epoch 2020 May 31.0 TT = JDT 2459000.5 T 2019 Oct. 26.11724 TT Spoto q 1.6046934 (2000.0) P Q n 0.15219068 Peri. 0.00704 +0.10226492 -0.85749606 a 3.4743802 Node 84.12432 +0.91264712 -0.12077772 e 0.5381354 Incl. 30.45673 +0.39574881 +0.50011323 P 6.48 From 1131 observations 1993 July 20-2020 Mar. 23, mean residual 0".8. Nongravitational parameters A1 = +0.03, A2 = -0.0168.
|
星図
|
光度変化m1 = 13.5 + 5 logΔ + 17.0 log r(t - 50)
|
軌道要素はM.P.E.C. 2020-S188に掲載されたものです。
|